GFSCGP_850_thetae_132.txt.gz
Theta_e
312 313 312 313 314 317 318 319 319 319 320 320 320 321 321 321 321 321 321 320 319 320 322 326 336 345 345 338 346 341 343 339 333 347 344 341 349 349 344 343 337 334 331 331
314 313 313 313 314 315 318 319 320 319 320 319 321 321 321 322 322 322 322 321 321 321 324 326 324 324 333 341 343 339 341 336 331 330 330 330 335 344 346 343 340 337 336 338
316 316 315 315 317 318 318 319 319 319 320 320 320 321 321 322 321 321 322 321 322 322 325 326 325 325 329 329 333 344 349 338 331 331 330 329 324 329 339 345 341 336 335 337
317 318 317 317 318 318 319 319 319 319 320 321 320 321 322 321 321 321 321 323 323 323 324 326 326 326 326 325 324 327 338 328 332 337 337 328 326 325 332 341 341 337 338 339
317 317 318 318 318 318 319 319 320 320 321 321 321 321 321 321 321 322 322 322 324 325 324 324 323 324 324 324 323 320 323 327 340 339 341 338 341 345 345 342 342 339 340 341
317 317 318 317 317 319 319 319 320 320 320 321 321 321 321 321 321 322 323 325 325 325 325 325 323 323 322 323 321 320 322 321 320 325 331 344 342 345 348 344 342 341 342 339
318 318 318 319 319 320 319 321 321 321 320 320 320 320 321 322 322 324 326 325 326 327 327 327 327 326 323 323 326 323 326 319 319 322 325 335 346 345 346 343 342 341 338 336
319 319 319 319 319 319 320 321 321 321 321 321 320 319 320 322 325 324 324 326 326 327 328 329 328 327 326 324 322 332 335 342 335 341 338 341 345 346 344 342 338 338 331 324
321 320 319 319 319 320 320 321 321 322 321 321 321 321 322 324 325 325 325 326 327 327 328 329 330 328 327 328 332 336 340 344 346 346 345 344 343 343 340 334 325 323 323 328
322 323 321 322 322 321 320 322 322 322 323 323 321 321 321 324 324 325 326 325 325 325 326 327 329 331 331 333 335 337 338 340 340 339 339 337 330 325 322 320 319 329 326 323
321 322 322 322 322 322 322 323 323 325 324 325 324 323 325 325 325 325 325 324 323 323 323 323 324 327 329 330 331 331 330 329 329 329 329 330 330 330 329 329 329 330 326 320
324 323 326 323 323 322 323 324 325 329 326 325 325 326 326 326 325 324 324 323 323 323 323 322 321 321 322 324 325 326 328 327 328 328 329 330 329 329 329 329 329 328 327 327
324 326 328 327 325 324 323 324 324 326 327 328 329 327 326 326 325 324 324 324 324 324 323 324 323 322 322 322 322 322 322 322 323 324 325 326 326 326 325 325 325 325 325 325
320 325 326 327 325 325 326 324 324 325 331 328 326 325 325 324 323 323 323 324 324 323 321 322 323 323 322 320 320 320 319 318 318 319 320 321 318 317 317 317 317 318 320 320
322 324 323 322 321 320 321 322 322 323 323 324 322 320 319 318 318 316 316 316 317 318 319 320 320 322 320 320 318 316 315 315 315 315 316 315 315 315 315 315 315 316 316 317
319 322 320 321 318 317 318 318 318 319 318 318 317 317 316 315 317 318 318 317 317 317 317 318 318 317 316 314 314 313 313 312 311 312 312 312 312 311 311 311 311 310 310 311
317 317 317 314 314 314 314 314 314 315 315 314 315 318 319 318 318 316 316 317 317 316 315 314 314 313 313 312 311 310 310 309 309 310 310 309 309 309 309 309 309 309 310 310
316 315 315 314 315 316 316 315 316 318 317 318 319 318 317 316 315 314 313 314 313 313 313 312 312 311 311 310 309 308 308 308 308 308 308 308 308 307 307 307 307 307 307 307
313 314 317 318 317 316 315 318 318 319 319 319 319 318 317 316 315 314 312 310 311 310 310 310 309 309 309 308 308 307 307 307 307 306 306 305 305 304 304 304 305 306 306 306
313 315 316 316 316 317 319 317 316 317 320 318 316 316 316 315 317 315 311 310 310 309 309 308 308 307 307 307 306 306 306 305 305 304 304 303 303 304 304 305 305 305 305 305
315 315 317 316 316 316 316 316 315 319 320 316 315 315 314 315 313 311 310 310 310 309 308 307 307 307 306 306 304 304 304 303 303 303 302 302 303 303 303 303 303 304 304 303
316 317 317 317 318 316 315 315 317 318 316 315 314 314 313 312 310 309 309 309 308 308 307 306 305 305 304 303 302 302 302 302 302 301 301 301 302 302 302 302 301 301 301 302
317 316 317 316 316 316 315 315 315 315 314 314 313 312 311 310 310 309 307 307 306 305 304 303 303 302 302 301 301 301 301 300 300 300 300 301 301 301 299 298 301 302 300 300
313 314 315 315 315 315 314 314 314 314 313 312 310 309 308 307 306 305 305 304 304 303 302 301 301 301 301 301 300 299 299 299 298 298 298 298 299 301 301 299 298 299 300 300
312 313 313 313 313 312 312 311 310 310 308 307 306 305 305 304 304 303 303 302 302 301 301 300 300 299 299 299 298 298 297 296 295 295 298 299 299 299 300 300 301 301 302 301
310 311 312 313 313 312 312 310 307 307 306 305 304 303 302 301 302 302 301 301 299 298 297 297 297 297 297 296 296 295 293 296 296 297 298 298 298 299 300 301 302 303 304 304

GFSCGP_850_thetae_138.txt.gz
Theta_e
321 319 319 318 318 318 318 319 320 321 322 322 321 322 322 323 323 323 324 323 323 322 321 319 319 320 323 326 335 353 350 348 339 350 348 350 348 347 346 346 345 346 340 332
322 320 319 319 319 318 318 318 319 322 322 323 322 322 323 323 324 324 324 324 324 323 322 321 320 320 325 347 352 352 355 353 351 350 349 345 342 332 334 335 341 339 335 332
320 320 320 319 318 318 318 317 319 322 322 322 322 322 323 324 323 323 323 322 323 323 323 321 321 340 342 350 355 355 349 347 347 346 343 339 336 334 332 330 333 334 331 331
319 320 320 318 318 318 318 318 318 321 322 322 322 322 325 324 325 324 323 323 324 325 323 325 330 334 334 350 350 349 330 330 334 335 340 336 334 332 332 331 329 327 326 326
321 320 320 319 318 318 317 318 318 320 321 322 322 322 324 326 325 324 325 324 325 325 325 327 331 336 335 346 344 337 331 330 331 337 334 333 328 329 330 329 329 332 332 326
321 321 320 320 319 317 318 320 321 321 321 323 322 322 323 324 326 325 325 324 326 326 325 327 328 328 330 336 341 345 342 337 332 331 330 330 327 327 330 333 334 338 337 336
321 321 321 320 320 319 319 321 321 323 323 323 322 322 324 326 325 325 326 326 326 325 328 329 330 330 329 329 328 338 342 343 341 338 329 326 326 327 333 339 336 339 343 343
324 324 322 321 321 320 320 321 321 325 324 322 322 324 324 326 325 325 325 324 325 326 328 328 330 330 329 331 329 328 331 330 334 332 331 329 329 333 343 345 340 342 342 343
321 324 321 320 320 321 321 321 322 324 324 325 324 324 326 326 326 325 324 325 327 327 327 328 331 333 335 338 340 338 333 334 333 339 342 346 348 344 347 343 345 344 344 343
322 326 321 321 321 321 321 321 322 322 325 327 325 325 325 327 326 325 324 326 327 326 326 328 330 334 336 337 339 340 342 343 344 344 343 343 343 341 342 344 343 343 342 341
320 326 328 322 323 321 320 322 323 323 325 328 328 330 327 327 330 329 326 327 326 325 325 326 328 329 331 333 333 334 335 336 337 338 339 340 340 341 340 324 327 335 334 335
322 326 327 327 323 324 324 321 322 328 328 325 331 331 328 329 328 328 324 326 325 325 325 325 325 326 327 327 329 329 328 329 333 333 334 334 335 336 335 334 334 335 335 333
325 328 330 329 327 325 327 323 323 326 329 330 331 333 327 328 329 326 324 323 325 324 325 326 326 325 325 326 325 324 324 324 326 328 331 332 333 333 333 333 333 332 332 331
325 328 329 331 329 327 328 327 325 326 332 329 328 330 328 326 325 324 326 325 325 325 325 325 324 325 324 324 323 323 322 322 321 321 319 320 322 323 324 326 325 324 323 324
325 326 326 326 324 324 324 324 327 327 324 328 327 327 328 322 322 321 321 319 319 319 319 321 322 325 325 325 323 321 320 318 319 319 320 319 318 318 319 318 318 318 317 316
325 324 322 326 326 322 321 320 325 326 327 325 326 326 324 321 321 321 320 320 320 320 319 320 323 322 321 320 319 319 317 316 316 316 316 315 314 314 314 314 314 314 314 314
321 320 320 320 322 322 320 318 320 325 325 324 325 323 323 322 321 319 319 319 319 320 320 320 320 319 318 317 317 316 315 314 314 314 314 314 314 314 313 312 312 311 311 311
319 319 319 320 318 318 320 319 318 319 317 317 318 321 321 320 319 318 318 318 318 317 317 317 317 316 316 315 315 314 314 314 314 313 313 313 313 312 311 311 311 310 309 309
317 320 322 320 319 319 319 320 321 320 319 321 322 322 320 319 319 318 317 317 317 317 316 315 315 315 314 314 314 314 313 313 313 312 312 311 310 310 309 309 308 308 308 307
316 318 322 319 321 319 323 320 318 319 325 321 321 320 320 319 319 319 317 316 315 315 314 315 314 314 314 313 313 313 312 312 311 311 310 309 308 308 307 307 307 306 308 309
318 319 320 319 320 318 320 319 317 320 323 320 319 318 318 318 318 317 316 316 315 315 314 313 312 312 312 312 311 310 309 309 308 308 307 307 307 306 306 307 307 307 307 307
318 320 319 321 320 319 318 317 320 322 319 316 317 316 316 315 315 315 314 314 313 313 312 312 311 310 309 308 307 306 306 306 306 306 306 305 305 306 306 305 304 303 303 303
319 317 320 319 319 320 318 319 318 318 316 316 314 314 314 314 313 313 312 312 311 310 309 309 308 307 306 306 305 305 305 305 305 304 304 304 303 303 301 301 301 301 302 302
317 318 318 318 319 318 317 317 316 315 314 314 313 313 312 312 311 311 310 308 307 307 307 306 306 306 305 305 304 303 304 303 303 302 301 300 298 298 298 300 300 301 301 301
317 316 315 316 318 316 315 314 313 312 312 311 311 310 309 309 308 307 306 305 305 304 304 303 303 303 302 302 301 301 299 299 299 299 299 297 297 298 299 299 299 299 301 301
315 315 316 317 316 316 315 312 311 310 309 308 308 307 306 305 304 304 305 305 303 302 301 300 299 299 298 298 297 297 296 296 296 296 296 296 297 297 297 297 300 301 301 302

GFSCGP_850_thetae_141.txt.gz
Theta_e
320 317 317 316 315 316 317 317 316 316 317 317 317 317 317 319 320 319 322 322 323 321 321 320 319 319 318 318 320 326 348 350 348 346 342 343 337 345 344 345 347 347 345 345
321 320 318 318 317 317 317 316 316 316 318 318 318 319 319 319 319 322 323 323 324 322 322 322 321 319 318 318 323 337 348 350 346 344 339 335 339 344 343 344 345 343 343 342
320 322 320 319 318 318 317 317 316 316 317 320 319 319 320 321 322 322 323 323 322 323 324 323 321 319 318 329 336 345 350 349 347 347 342 343 342 340 341 341 341 337 334 331
320 321 322 321 319 318 318 318 317 317 317 319 319 317 320 320 321 322 322 322 324 325 325 322 321 320 320 332 348 349 348 348 347 347 346 344 344 342 340 339 337 335 333 331
321 321 321 320 319 319 318 318 318 317 316 320 319 317 318 320 321 321 320 323 325 326 328 336 341 348 347 346 344 345 347 348 346 344 345 344 343 340 337 336 334 333 331 328
321 321 320 319 320 319 318 318 317 316 315 317 318 319 318 319 322 322 322 325 325 327 328 329 330 329 331 333 334 341 341 337 337 339 335 336 333 329 328 329 330 330 329 330
323 322 320 321 321 318 318 314 315 320 317 318 318 319 318 319 323 323 325 325 325 329 330 329 329 329 329 329 342 341 335 334 333 335 339 338 334 329 329 329 330 331 331 333
325 323 321 321 320 318 315 315 317 321 321 320 321 320 319 320 324 325 325 325 327 327 330 330 331 330 329 331 334 342 340 337 338 339 339 337 336 332 330 333 347 341 337 336
323 325 323 321 321 320 317 317 317 321 323 324 321 321 323 322 324 323 323 326 327 327 331 331 333 335 335 335 338 341 338 337 338 337 335 339 341 340 339 341 340 338 340 340
321 323 323 322 321 321 319 319 319 320 326 324 322 326 330 328 327 323 326 325 327 328 329 334 336 336 335 333 336 336 337 340 341 342 344 343 342 344 345 343 339 339 337 338
320 324 325 325 321 319 319 320 319 319 319 323 327 331 327 328 328 327 324 324 324 325 330 331 333 333 333 332 332 333 333 333 334 335 337 337 338 340 339 336 329 327 327 324
318 322 324 324 323 323 325 319 321 321 325 324 327 327 327 326 326 326 325 324 324 326 326 328 329 329 330 330 330 329 331 332 332 333 333 335 335 334 334 334 334 334 333 332
319 323 326 326 324 324 324 321 322 322 326 328 330 328 327 326 324 324 325 325 324 324 326 325 325 326 326 325 324 325 325 324 321 321 328 332 333 333 332 332 333 331 330 330
323 325 326 326 328 326 327 327 326 323 324 327 328 329 328 325 322 320 321 323 321 323 325 326 325 324 324 323 322 322 321 321 321 322 321 319 319 320 321 325 323 321 321 323
324 327 326 325 323 324 325 325 326 328 327 326 326 327 328 324 320 319 319 319 321 319 321 325 325 324 321 321 319 320 320 319 319 319 317 316 316 316 317 317 316 315 315 315
322 323 323 325 326 323 322 323 324 326 327 326 323 327 324 323 321 320 320 320 320 321 321 320 320 319 319 318 318 317 317 316 315 315 315 314 314 313 313 312 312 312 312 312
323 323 323 326 325 324 324 320 321 324 326 326 326 321 323 322 321 319 319 318 318 317 317 317 317 317 316 316 315 315 314 314 314 314 313 313 313 312 312 312 312 312 311 311
318 318 319 321 325 321 320 318 318 322 324 324 324 321 323 320 317 318 317 317 317 316 316 316 316 315 315 314 314 314 314 313 313 313 312 312 312 311 311 311 311 310 310 309
316 320 318 318 318 320 322 321 322 323 322 321 320 319 318 317 317 316 317 317 316 316 316 315 314 314 314 314 313 313 313 312 312 312 311 310 310 310 309 308 308 307 307 306
316 316 317 317 318 321 322 320 318 321 323 319 320 318 318 318 316 316 316 315 315 315 314 314 314 314 313 313 312 312 311 311 310 309 308 308 308 307 307 306 306 307 307 308
317 317 317 318 318 321 320 319 317 319 322 318 317 317 317 316 316 317 316 316 315 314 314 313 313 311 312 311 309 309 308 306 306 306 306 306 306 305 305 305 306 306 306 306
317 315 314 316 317 320 320 320 322 319 317 316 315 315 315 315 316 315 315 314 313 312 310 309 309 308 307 306 306 306 305 305 305 305 305 305 305 304 304 304 303 302 302 303
315 317 316 317 317 319 319 319 317 316 315 314 314 314 313 313 313 312 311 310 309 308 307 307 306 306 305 305 304 304 304 304 304 304 304 304 304 303 302 300 301 303 303 302
318 317 316 318 319 319 318 316 316 316 314 314 313 312 311 310 309 308 308 307 306 305 305 304 305 305 304 303 303 302 301 302 302 302 302 302 302 301 299 301 301 301 300 300
315 316 316 317 317 315 314 313 313 312 311 310 309 308 307 306 305 305 305 305 305 304 303 302 302 302 301 300 299 300 299 300 299 299 299 298 298 298 300 300 299 299 299 299
315 316 315 316 316 316 313 311 310 308 307 306 304 303 304 304 304 304 304 303 303 302 301 300 300 299 298 297 297 297 296 296 296 295 296 296 297 298 298 298 299 299 299 300

GFSCGP_850_thetae_144.txt.gz
Theta_e
319 317 317 314 313 312 314 314 314 314 315 314 313 315 315 315 315 315 318 319 320 321 322 321 320 320 320 319 318 321 336 343 347 345 342 346 343 342 339 341 341 341 342 341
318 320 318 316 315 314 314 315 315 315 315 313 314 314 315 314 315 316 318 320 320 322 322 322 321 320 320 319 318 320 327 336 346 346 344 346 345 345 345 345 345 346 345 344
316 320 319 318 318 318 315 315 316 315 316 315 315 316 315 316 316 319 320 321 321 322 323 323 321 321 321 319 318 318 325 332 345 346 344 345 345 346 343 343 343 342 341 336
316 318 320 320 319 318 317 317 317 316 317 315 316 315 317 318 318 319 321 321 324 325 323 323 323 322 321 319 318 321 330 340 344 344 345 343 342 342 341 335 338 331 333 335
318 318 319 321 320 320 319 318 317 317 317 314 316 316 315 316 318 317 318 320 327 328 327 330 324 321 321 323 326 336 344 345 345 344 343 343 342 342 339 339 335 333 337 338
317 319 319 319 320 321 320 319 318 317 315 315 315 316 315 316 318 319 318 323 332 338 336 334 334 344 338 340 344 340 340 341 342 341 338 339 343 341 341 340 338 338 339 339
318 319 320 321 321 320 319 318 319 317 315 314 314 316 315 318 319 320 320 322 328 328 329 329 330 331 336 338 338 339 337 336 342 337 334 334 334 341 338 339 338 335 334 334
323 323 322 321 320 318 316 318 313 316 317 314 318 317 315 318 322 323 323 327 329 330 333 333 333 332 335 342 342 346 345 345 341 338 337 338 337 339 339 335 330 329 330 335
325 325 322 321 320 318 319 316 315 315 324 320 319 319 326 326 323 324 326 328 330 331 333 335 334 333 332 332 336 337 342 343 346 345 344 343 342 341 336 334 335 334 336 339
322 324 321 321 321 320 319 316 316 319 324 327 322 330 332 329 327 324 323 323 329 336 336 335 333 332 331 332 336 339 340 338 340 340 341 341 338 340 340 339 339 339 338 337
320 319 321 323 322 322 319 318 317 318 319 322 326 327 328 327 324 324 321 323 329 334 336 334 333 332 331 332 332 333 333 333 334 336 336 336 336 336 335 335 333 332 331 329
317 321 322 320 322 321 323 320 317 318 320 321 327 326 327 325 323 324 324 325 325 328 330 330 330 330 329 329 329 330 331 332 332 333 333 332 332 332 333 332 331 331 331 330
320 320 322 323 322 322 325 320 318 318 320 325 325 325 325 325 324 322 321 324 325 326 326 326 325 323 325 325 325 325 323 321 322 327 329 329 328 327 326 326 328 329 328 328
322 320 320 321 325 324 325 324 325 321 322 325 325 329 326 325 324 323 320 323 324 324 325 324 323 322 322 321 321 321 320 320 320 319 319 318 317 317 317 317 317 317 318 319
323 323 322 320 324 323 325 326 326 326 325 324 325 327 324 323 323 322 321 320 320 320 324 323 320 319 320 320 320 320 319 319 317 317 316 314 314 314 315 315 314 313 313 314
318 323 322 320 320 321 325 325 325 326 326 325 324 327 324 321 322 319 321 321 323 321 319 319 318 319 319 319 319 319 317 316 315 315 314 313 313 312 312 312 312 312 312 312
318 321 323 323 325 321 324 323 324 324 324 327 327 324 322 323 320 319 320 321 319 318 318 317 317 317 316 316 316 316 315 314 313 313 313 313 312 312 311 311 311 311 311 310
321 321 320 323 323 324 320 319 322 325 325 324 322 322 324 317 316 317 317 317 317 317 316 316 316 315 315 314 314 313 313 313 313 313 312 312 312 312 311 310 310 309 309 308
314 317 317 322 320 322 321 320 322 322 322 322 321 322 317 316 316 315 316 316 315 315 314 314 314 314 314 313 313 313 313 312 311 311 311 310 309 308 308 308 307 306 306 305
314 315 316 315 319 321 321 318 319 319 323 319 318 316 316 316 316 314 315 315 314 314 314 314 314 313 312 312 312 311 310 309 308 307 307 306 306 306 306 305 304 304 304 303
315 313 314 313 313 321 320 321 319 319 321 316 316 316 316 315 315 315 315 315 314 313 312 312 312 311 310 309 308 308 307 306 306 306 305 305 305 305 304 304 304 303 302 301
314 312 310 312 310 320 319 319 320 317 314 314 315 316 317 316 316 315 315 314 314 314 313 312 311 309 306 306 306 305 305 305 304 304 304 304 304 303 303 303 303 302 301 303
313 314 313 313 314 315 316 316 316 315 314 313 313 312 312 310 310 309 307 307 307 307 307 306 306 306 305 305 305 304 304 303 303 302 302 302 302 302 302 301 301 300 302 303
316 313 316 316 318 316 316 315 315 314 312 310 310 309 309 306 306 305 305 305 305 304 304 304 304 304 303 303 302 301 300 299 299 299 299 299 298 298 298 298 299 301 302 301
312 313 315 316 316 315 314 312 309 308 307 307 307 307 305 306 304 304 304 304 303 303 303 303 303 303 302 301 300 299 298 297 297 297 296 296 297 298 299 299 300 300 300 299
313 312 313 316 314 312 310 307 308 306 304 304 305 304 304 304 304 303 303 302 302 301 301 301 301 301 300 299 298 296 296 295 295 296 296 297 297 297 298 298 300 299 298 299

GFSCGP_850_thetae_147.txt.gz
Theta_e
317 318 316 313 310 311 311 311 311 313 312 312 312 311 312 313 314 313 315 316 317 317 319 321 321 321 320 318 317 320 324 332 343 347 344 343 346 346 344 342 339 340 340 339
317 319 317 315 313 313 313 312 312 314 314 313 313 312 312 313 312 314 314 315 317 317 319 321 321 322 321 320 318 318 322 328 340 346 346 344 345 345 344 341 339 341 341 340
317 318 318 318 317 316 312 312 312 314 315 314 313 313 313 314 314 315 315 316 317 317 318 320 322 322 322 320 319 318 320 323 336 347 346 344 344 345 344 342 340 340 342 342
315 315 316 319 319 317 317 314 314 315 316 314 313 312 313 313 314 313 315 315 317 318 321 322 323 323 322 321 319 318 318 327 331 344 344 345 344 344 344 344 341 342 341 340
316 315 316 317 318 318 317 317 316 316 316 314 316 313 313 314 315 314 315 317 319 323 324 323 323 323 321 320 320 319 319 321 330 343 345 345 344 345 343 341 340 337 340 337
316 316 316 316 317 319 319 319 319 318 316 316 316 313 312 314 315 317 317 318 326 336 333 324 322 321 321 326 326 328 331 336 337 342 343 345 343 342 338 340 339 339 337 339
320 317 316 318 318 318 319 320 324 321 317 318 314 313 313 315 316 318 320 323 329 332 341 339 330 331 331 338 340 338 342 342 343 343 341 341 339 339 340 340 340 340 340 337
322 320 318 319 319 319 320 322 322 325 317 318 314 314 313 320 321 321 321 326 329 336 338 342 342 336 333 337 342 343 341 340 340 341 341 340 341 341 342 341 341 339 332 329
323 322 320 319 319 320 319 321 318 315 324 319 315 318 324 325 323 323 326 330 333 336 337 336 335 336 339 343 343 343 345 343 342 340 340 341 341 340 340 339 338 334 333 335
321 324 321 321 319 319 320 317 318 320 321 323 322 329 329 326 325 322 324 325 334 333 335 334 334 333 333 330 331 333 335 335 338 340 338 337 338 338 337 337 337 337 336 336
321 321 322 320 321 320 319 320 319 316 316 320 324 326 326 325 323 323 322 324 332 330 331 334 333 332 331 332 330 333 334 335 336 336 336 335 334 333 333 333 332 331 330 329
321 321 322 321 321 321 320 319 317 316 319 318 321 326 326 322 321 322 322 324 326 329 329 332 332 332 331 331 330 330 330 331 332 331 331 332 332 332 332 331 330 329 328 328
321 321 323 321 322 320 322 322 318 315 317 321 321 323 324 323 321 321 321 323 324 325 324 326 329 329 330 330 329 329 329 329 328 328 327 325 324 322 321 323 326 326 324 325
321 319 321 321 322 321 323 323 319 318 317 321 320 329 325 326 325 321 320 323 323 321 321 321 321 322 322 322 322 320 320 319 319 319 318 317 316 315 315 314 315 315 315 315
322 322 321 322 324 324 325 325 325 320 319 322 324 328 325 325 326 323 321 322 322 319 319 319 318 317 317 317 318 317 317 317 317 316 316 316 314 314 313 313 313 312 312 312
318 323 321 322 321 323 325 325 326 326 324 325 326 327 323 323 323 323 322 323 320 318 317 317 317 317 317 317 317 315 315 314 313 314 314 313 313 312 312 312 311 311 311 311
319 318 322 323 322 322 324 322 324 326 325 325 326 325 322 322 321 322 322 322 321 319 319 318 318 318 317 316 315 314 314 313 313 313 312 312 312 312 311 311 311 310 310 310
319 319 317 323 321 324 320 319 323 324 324 324 324 323 321 320 320 320 321 321 321 320 318 317 316 315 315 314 314 313 313 313 312 312 311 311 310 309 308 307 306 305 304 304
316 318 317 322 321 322 321 322 324 324 321 319 321 317 316 316 316 314 318 319 318 317 316 315 314 314 313 313 313 313 312 311 311 310 309 308 308 307 306 305 305 304 303 303
316 317 316 317 321 324 321 320 319 319 322 318 317 316 316 317 318 314 316 316 315 315 314 314 313 313 313 313 312 312 311 309 308 307 307 306 305 305 305 304 304 304 303 302
316 313 316 315 320 322 321 320 318 320 322 317 316 316 317 317 315 314 314 314 314 314 313 313 312 311 310 309 308 307 307 306 305 305 304 304 304 304 303 303 303 302 302 301
314 312 312 314 316 322 317 318 317 316 314 316 315 315 314 314 314 313 313 313 312 312 311 311 311 310 308 307 306 306 305 305 304 304 304 303 302 301 300 300 300 300 300 300
315 312 313 313 314 314 314 313 312 313 312 314 315 314 314 313 311 311 309 308 307 307 307 306 306 306 305 305 305 305 304 303 303 302 300 299 298 298 298 298 298 298 299 301
314 313 316 316 317 313 309 311 311 312 311 311 314 314 313 308 307 306 306 306 306 305 305 304 304 304 304 304 303 303 302 301 300 298 297 297 297 297 297 298 299 299 300 300
311 312 316 317 315 309 305 306 307 307 308 308 308 308 307 307 306 306 305 305 304 304 304 303 303 302 302 301 301 300 300 299 297 297 297 297 297 298 298 298 298 298 298 297
310 312 314 317 313 310 305 304 307 307 305 305 305 304 304 305 304 303 303 303 302 302 301 301 301 301 300 299 299 298 297 296 296 296 297 297 297 297 297 298 299 297 298 298